Probability
0 0 0 0 0 0 0 0 0 0 0 0 0 0 0 0 0 0 0 0 0 0 0 0 0 0 0 0 0 0 0 0 0 0 0 0 0 0 0 0 0 0 0
0 0 0 0 0 0 0 0 0 0 0 0 0 0 0 0 0 0 0 0 0 0 0 0 0 0 0 0 0 0 0 0 0 0 0 0 0 0 0 0 0 0 0
0 0 0 0 0 0 0 0 0 0 0 0 0 0 0 0 0 0 0 0 0 0 0 0 0 0 0 0 0 0 0 0 0 0 0 0 0 0 0 0 0 0 0
0 0 0 0 0 0 0 0 0 0 0 0 0 0 0 0 0 0 0 0 0 0 0 0 0 0 0 0 0 0 0 0 0 0 0 0 0 0 0 0 0 0 0
0 0 0 0 0 0 0 0 0 0 0 0 0 0 0 0 0 0 0 0 0 0 0 0 0 0 0 0 0 0 0 0 0 0 0 0 0 0 0 0 0 0 0
0 0 0 0 0 0 0 0 0 0 0 0 0 0 0 0 0 0 0 0 0 0 0 0 0 0 0 0 0 0 0 0 0 0 0 0 0 0 0 0 0 0 0
0 0 0 0 0 0 0 0 0 0 0 0 0 0 0 0 0 0 0 0 0 0 0 0 0 0 0 0 0 0 0 0 0 0 0 0 0 0 0 0 0 0 0
0 0 0 0 0 0 0 0 0 0 0 0 0 0 0 0 0 0 0 0 0 0 0 0 0 0 0 0 0 0 0 0 0 0 0 0 0 0 0 0 0 0 0
0 0 0 0 0 0 0 0 0 0 0 0 0 0 0 0 0 0 0 0 0 0 0 0 0 0 0 0 0 0 0 0 0 0 0 0 0 0 0 0 0 0 0
0 0 0 0 0 0 0 0 0 0 0 0 0 0 0 0 0 0 0 0 0 0 0 0 0 0 0 0 0 0 0 0 0 0 0 0 0 0 0 0 0 0 0
0 0 0 0 0 0 0 0 0 0 0 0 0 0 0 0 0 0 0 0 0 0 0 0 0 0 0 0 0 0 0 0 0 0 0 0 0 0 0 0 0 0 0
0 0 0 0 0 0 0 0 0 0 0 0 0 0 0 0 0 0 0 0 0 0 0 0 0 0 0 0 0 0 0 0 0 0 0 0 0 0 0 0 0 0 0
0 0 0 0 0 0 0 0 0 0 0 0 0 0 0 0 0 0 0 0 0 0 0 0 0 0 0 0 0 0 0 0 0 0 0 0 0 0 0 0 0 0 0
0 0 0 0 0 0 0 0 0 0 0 0 0 0 0 0 0 0 0 0 0 0 0 0 0 0 0 0 0 0 0 0 0 0 0 0 0 0 0 0 0 0 0
0 0 0 0 0 0 0 0 0 0 0 0 0 0 0 0 0 0 0 0 0 0 0 0 0 0 0 0 0 0 0 0 0 0 0 0 0 0 0 0 0 0 0
0 0 0 0 0 0 0 0 0 0 0 0 0 0 0 0 0 0 0 0 0 0 0 0 0 0 0 0 0 0 0 0 0 0 0 0 0 0 0 0 0 0 0
0 0 0 0 0 0 0 0 0 0 0 0 0 0 0 0 0 0 0 0 0 0 0 0 0 0 0 0 0 0 0 0 0 0 0 0 0 0 0 0 0 0 0
0 0 0 0 0 0 0 0 0 0 0 0 0 0 0 0 0 0 0 0 0 0 0 0 0 0 0 0 0 0 0 0 0 0 0 0 0 0 0 0 0 0 0
0 0 0 0 0 0 0 0 0 0 0 0 0 0 0 0 0 0 0 0 0 0 0 0 0 0 0 0 0 0 0 0 0 0 0 0 0 0 0 0 0 0 0
0 0 0 0 0 0 0 0 0 0 0 0 0 0 0 0 0 0 0 0 0 0 0 0 0 0 0 0 0 0 0 0 0 0 0 0 0 0 0 0 0 0 0
0 0 0 0 0 0 0 0 0 0 0 0 0 0 0 0 0 0 0 0 0 0 0 0 0 0 0 0 0 0 0 0 0 0 0 0 0 0 0 0 0 0 0
0 0 0 0 0 0 0 0 0 0 0 0 0 0 0 0 0 0 0 0 0 0 0 0 0 0 0 0 0 0 0 0 0 0 0 0 0 0 0 0 0 0 0
0 0 0 0 0 0 0 0 0 0 0 0 0 0 0 0 0 0 0 0 0 0 0 0 0 0 0 0 0 0 0 0 0 0 0 0 0 0 0 0 0 0 0
0 0 0 0 0 0 0 0 0 0 0 0 0 0 0 0 0 0 0 0 0 0 0 0 0 0 0 0 0 0 0 0 0 0 0 0 0 0 0 0 0 0 0
0 0 0 0 0 0 0 0 0 0 0 0 0 0 0 0 0 0 0 0 0 0 0 0 0 0 0 0 0 0 0 0 0 0 0 0 0 0 0 0 0 0 0
0 0 0 0 0 0 0 0 0 0 0 0 0 0 0 0 0 0 0 0 0 0 0 0 0 0 0 0 0 0 0 0 0 0 0 0 0 0 0 0 0 0 0
Height
5703 5703 5703 5703 5703 5703 5703 5703 5704 5703 5703 5703 5703 5703 5703 5703 5702 5701 5700 5700 5699 5699 5698 5697 5696 5696 5696 5696 5696 5696 5697 5698 5699 5700 5702 5703 5704 5705 5707 5709 5710 5712 5713
5692 5692 5692 5692 5692 5692 5692 5692 5692 5692 5692 5692 5692 5692 5691 5691 5690 5689 5688 5688 5687 5687 5686 5685 5684 5684 5683 5683 5684 5684 5684 5685 5686 5687 5688 5690 5692 5693 5694 5695 5697 5698 5699
5682 5681 5681 5681 5681 5681 5681 5681 5681 5681 5680 5680 5680 5680 5679 5679 5679 5678 5677 5676 5675 5674 5673 5673 5672 5671 5671 5671 5671 5671 5671 5672 5672 5673 5674 5675 5677 5679 5681 5681 5682 5683 5684
5671 5670 5670 5670 5670 5669 5669 5669 5669 5669 5669 5668 5668 5668 5668 5667 5667 5665 5664 5663 5663 5662 5661 5660 5659 5658 5658 5657 5657 5657 5657 5658 5658 5659 5659 5660 5661 5663 5666 5667 5667 5667 5668
5659 5659 5658 5658 5658 5657 5657 5657 5657 5657 5657 5657 5656 5656 5655 5655 5654 5653 5652 5651 5650 5649 5648 5647 5646 5645 5645 5644 5644 5643 5643 5643 5644 5644 5645 5645 5646 5647 5649 5651 5652 5652 5652
5647 5647 5647 5646 5646 5646 5646 5645 5645 5645 5645 5645 5644 5644 5643 5642 5641 5640 5639 5638 5637 5636 5635 5634 5633 5632 5631 5630 5630 5630 5629 5629 5629 5629 5629 5630 5630 5631 5632 5634 5635 5636 5636
5635 5635 5635 5635 5635 5634 5634 5634 5634 5633 5633 5633 5632 5632 5631 5630 5628 5627 5626 5625 5623 5622 5621 5620 5619 5618 5617 5617 5616 5615 5615 5615 5614 5614 5614 5614 5615 5615 5616 5617 5618 5619 5620
5623 5623 5623 5623 5623 5623 5623 5622 5622 5621 5621 5620 5620 5619 5618 5617 5616 5614 5613 5612 5610 5609 5608 5607 5606 5604 5603 5602 5602 5601 5600 5600 5599 5599 5599 5599 5599 5599 5600 5600 5601 5602 5603
5612 5611 5611 5611 5611 5611 5611 5610 5609 5609 5608 5607 5607 5606 5605 5604 5602 5601 5600 5598 5597 5596 5595 5594 5592 5591 5589 5588 5587 5586 5586 5585 5584 5583 5583 5583 5583 5583 5583 5584 5584 5585 5586
5600 5600 5600 5599 5599 5599 5598 5598 5597 5596 5596 5595 5594 5593 5592 5590 5589 5588 5586 5585 5584 5582 5581 5580 5578 5577 5576 5574 5573 5571 5570 5569 5568 5567 5567 5566 5567 5566 5566 5567 5567 5567 5567
5589 5589 5588 5587 5587 5586 5586 5585 5585 5584 5583 5582 5581 5579 5578 5577 5576 5574 5573 5571 5570 5568 5567 5566 5564 5563 5561 5560 5558 5557 5555 5554 5553 5552 5552 5551 5550 5550 5550 5550 5550 5550 5550
5578 5577 5576 5575 5575 5574 5574 5573 5572 5571 5570 5569 5567 5566 5565 5563 5562 5560 5559 5557 5556 5554 5553 5551 5550 5549 5547 5545 5543 5542 5541 5539 5538 5537 5536 5535 5534 5534 5534 5534 5534 5533 5533
5566 5566 5565 5564 5563 5562 5561 5560 5559 5558 5557 5556 5554 5553 5552 5550 5548 5547 5545 5544 5542 5540 5539 5537 5536 5534 5533 5531 5529 5528 5526 5525 5523 5522 5521 5520 5519 5519 5518 5518 5517 5517 5517
5555 5554 5553 5552 5551 5550 5549 5548 5546 5545 5544 5543 5541 5540 5538 5537 5535 5533 5531 5530 5528 5526 5525 5523 5522 5520 5519 5517 5515 5513 5512 5510 5508 5507 5506 5505 5504 5504 5503 5502 5502 5501 5501
5543 5542 5541 5540 5539 5538 5536 5535 5534 5533 5531 5530 5528 5527 5525 5523 5521 5520 5518 5516 5515 5513 5511 5510 5508 5507 5505 5503 5501 5500 5498 5496 5494 5493 5492 5491 5490 5488 5488 5487 5487 5486 5485
5532 5531 5530 5528 5527 5525 5524 5523 5521 5520 5518 5517 5515 5514 5512 5510 5508 5506 5504 5503 5501 5500 5498 5496 5495 5493 5491 5489 5487 5486 5484 5482 5480 5479 5477 5476 5475 5474 5473 5472 5471 5471 5471
5520 5519 5518 5516 5515 5513 5512 5510 5509 5507 5506 5504 5503 5501 5499 5498 5496 5493 5492 5490 5488 5486 5485 5483 5481 5480 5478 5476 5474 5472 5470 5468 5466 5464 5463 5462 5461 5459 5459 5458 5457 5457 5456
5508 5507 5506 5504 5503 5501 5500 5498 5497 5495 5494 5492 5491 5489 5487 5485 5483 5481 5479 5477 5475 5474 5472 5470 5468 5467 5465 5462 5460 5458 5456 5454 5452 5451 5449 5448 5447 5446 5445 5444 5443 5443 5442
5497 5496 5494 5493 5491 5490 5488 5487 5485 5483 5482 5480 5479 5477 5475 5473 5471 5469 5467 5465 5463 5461 5459 5458 5456 5454 5452 5449 5447 5444 5443 5441 5439 5438 5436 5435 5434 5433 5431 5431 5430 5430 5429
5486 5484 5483 5481 5480 5478 5477 5475 5473 5472 5470 5468 5467 5465 5463 5461 5459 5457 5455 5453 5451 5449 5447 5445 5443 5441 5439 5437 5434 5432 5431 5429 5427 5425 5424 5422 5421 5419 5418 5417 5417 5417 5416
5475 5473 5471 5470 5468 5467 5465 5464 5462 5460 5458 5456 5455 5453 5451 5449 5447 5445 5443 5441 5439 5437 5435 5433 5431 5429 5427 5425 5423 5420 5419 5417 5415 5413 5412 5410 5408 5407 5406 5405 5404 5404 5403
5464 5462 5460 5459 5457 5455 5454 5452 5450 5448 5446 5445 5443 5441 5439 5437 5435 5433 5431 5429 5427 5425 5423 5421 5419 5417 5415 5413 5411 5409 5407 5405 5403 5402 5400 5399 5397 5396 5394 5393 5393 5392 5391
5453 5451 5449 5447 5446 5443 5442 5440 5439 5437 5435 5434 5432 5430 5428 5426 5424 5422 5420 5417 5415 5413 5411 5409 5407 5405 5403 5402 5400 5399 5397 5394 5393 5391 5389 5388 5386 5385 5384 5383 5382 5381 5380
5441 5440 5438 5436 5434 5432 5430 5428 5427 5425 5424 5422 5420 5418 5417 5415 5412 5411 5409 5407 5404 5402 5400 5398 5396 5394 5393 5391 5390 5388 5386 5385 5383 5381 5379 5378 5376 5375 5374 5372 5371 5370 5369
5430 5428 5426 5425 5423 5421 5419 5417 5415 5414 5412 5411 5409 5407 5406 5404 5402 5400 5398 5396 5394 5392 5390 5388 5386 5385 5383 5381 5379 5378 5376 5375 5373 5371 5370 5368 5366 5365 5363 5362 5361 5360 5359
5418 5416 5415 5413 5411 5409 5407 5406 5404 5403 5401 5400 5398 5397 5395 5393 5392 5390 5388 5385 5384 5382 5380 5378 5376 5374 5373 5371 5370 5368 5366 5365 5363 5361 5360 5358 5356 5355 5354 5352 5351 5350 5349
Wind_Speed
39 39 39 40 40 40 40 40 40 40 40 41 41 42 42 42 43 44 44 44 44 44 44 44 45 45 45 45 46 46 47 48 49 48 49 49 49 50 51 52 51 51 51
39 39 40 40 41 41 41 41 42 42 42 42 43 43 43 44 45 45 45 45 45 45 45 46 46 46 46 46 47 47 48 49 50 50 50 50 51 51 51 52 54 54 54
39 39 40 40 41 42 42 42 42 42 43 42 43 43 44 45 46 46 46 46 46 46 46 47 47 47 47 48 48 49 49 50 51 51 52 52 52 52 52 53 54 56 56
40 40 40 40 41 42 42 42 43 43 42 42 43 43 44 46 47 48 48 48 48 48 47 47 48 48 48 49 50 50 50 51 52 53 53 54 55 55 54 55 55 56 57
40 40 40 40 40 41 42 42 43 43 43 43 44 45 46 47 47 48 49 49 49 48 48 47 48 49 49 49 50 51 52 52 53 54 55 56 56 57 57 57 57 57 57
39 39 39 39 40 41 41 42 42 43 43 44 45 46 46 47 48 48 48 49 50 50 49 49 49 49 49 50 51 52 53 54 54 55 56 56 57 57 58 59 59 58 58
39 39 39 39 39 39 40 41 42 43 44 44 44 45 46 47 48 49 49 49 49 50 50 50 50 50 50 51 52 52 53 54 55 56 56 57 57 58 59 59 59 59 59
39 39 39 39 39 39 40 40 42 43 44 44 45 46 46 46 47 49 49 50 50 51 51 51 51 52 52 52 53 53 53 54 55 56 56 57 57 58 59 59 60 60 60
37 38 39 39 40 40 41 41 42 43 44 46 46 47 47 47 48 49 50 50 51 52 52 52 52 52 52 53 53 54 54 55 55 55 55 56 57 58 58 59 60 61 61
36 38 39 40 41 41 41 42 42 43 44 45 46 47 48 48 48 49 49 50 51 51 51 51 51 51 52 53 53 54 54 54 54 53 54 56 56 57 58 58 58 58 59
37 38 39 40 41 42 42 42 43 43 43 44 45 46 47 48 48 49 50 50 50 51 51 52 52 52 52 53 53 53 54 54 53 53 54 55 56 57 57 58 58 58 59
39 39 39 40 40 41 42 43 44 44 44 45 45 46 47 48 49 49 50 50 50 50 51 51 52 52 52 52 52 52 52 52 53 53 54 55 56 56 56 56 57 58 59
39 39 40 40 40 41 42 43 44 44 44 44 45 46 46 47 48 49 49 49 49 50 50 50 50 50 50 49 50 51 51 51 52 52 53 54 54 55 55 55 55 56 56
39 39 40 41 41 41 42 42 43 43 44 44 44 44 45 46 46 47 47 47 47 48 48 48 49 49 48 48 49 50 50 50 50 51 51 52 53 54 54 54 54 55 55
38 38 39 40 40 41 41 42 42 43 43 43 43 44 44 44 45 45 45 46 46 46 47 48 48 48 48 49 48 47 48 48 48 48 49 50 50 51 52 52 52 52 53
37 38 38 38 39 40 40 41 41 41 42 43 43 44 44 44 44 45 45 45 46 45 46 46 47 48 48 48 47 47 48 47 47 48 48 48 48 49 49 50 50 50 51
37 37 38 38 38 39 39 39 40 40 41 41 42 42 43 43 43 44 44 44 44 45 45 45 46 45 46 46 46 46 47 47 47 47 47 47 46 46 47 48 48 48 49
36 36 37 36 37 37 38 38 39 39 40 40 41 41 41 41 41 42 42 43 43 43 43 44 44 44 44 45 45 46 46 45 45 45 45 45 45 44 44 44 45 46 47
35 36 36 36 36 36 37 37 38 38 39 39 40 40 40 41 41 41 42 41 42 42 42 42 42 43 43 43 43 43 43 42 43 43 43 43 43 43 43 43 44 44 45
35 35 36 36 36 36 36 36 37 37 38 38 38 39 40 40 40 40 40 40 41 41 41 41 42 42 42 41 40 40 41 41 40 41 41 41 42 42 42 43 42 42 42
35 35 35 35 35 36 36 36 36 37 37 37 37 38 38 38 38 39 39 39 40 41 41 40 40 40 40 39 39 39 39 39 39 38 39 39 39 39 39 40 40 40 40
35 35 35 35 35 35 35 35 35 36 36 36 36 36 37 37 37 37 38 38 38 39 39 39 39 39 38 38 37 36 36 37 37 36 36 36 36 36 36 37 37 38 38
35 35 35 35 35 35 35 35 35 35 35 35 35 36 36 36 36 36 36 36 36 36 36 37 37 37 37 36 36 35 35 34 34 34 33 33 34 34 35 35 36 36 36
36 35 35 35 35 35 35 34 34 33 34 34 34 35 35 35 34 34 35 35 34 34 34 34 34 34 35 35 34 34 34 33 33 32 32 32 33 33 34 34 34 34 35
36 36 35 35 34 34 34 34 33 33 33 33 33 33 33 33 32 32 32 32 32 32 32 32 32 32 33 33 33 32 32 32 32 32 32 32 32 32 33 33 33 33 34
36 36 35 35 34 33 33 33 33 33 32 32 32 32 32 32 31 31 30 30 30 30 30 30 30 30 30 30 30 30 31 31 31 31 31 31 32 32 32 32 32 33 33
Wind_Direction
265 265 265 265 265 265 266 265 266 265 263 262 263 265 265 266 267 269 269 270 270 269 269 270 270 269 267 265 264 263 262 260 260 261 261 261 260 261 261 260 259 259 259
265 266 266 265 265 266 266 266 266 266 266 265 264 264 265 266 267 268 268 269 269 269 269 269 269 269 268 265 264 264 263 262 262 262 261 261 261 261 260 261 261 260 261
266 267 266 266 266 266 266 265 265 266 266 266 265 265 265 265 266 267 268 268 269 269 270 269 269 269 268 266 265 265 265 263 263 263 262 262 261 260 260 261 261 262 262
266 267 267 267 266 265 265 265 265 265 265 265 265 265 266 266 266 267 267 267 268 268 270 269 269 268 268 267 266 266 266 265 264 263 263 263 262 261 260 261 262 262 262
267 267 267 267 265 264 264 264 265 263 263 264 264 265 267 267 267 268 268 268 268 269 270 270 269 269 269 268 268 268 267 267 266 265 265 264 264 263 262 262 262 262 262
268 267 267 266 265 265 265 265 265 264 264 264 265 266 267 268 268 269 269 270 270 270 271 272 272 271 271 270 269 270 269 268 267 267 266 266 265 264 263 263 263 263 263
268 268 268 267 267 267 266 266 265 264 264 265 266 267 268 269 269 269 270 271 271 272 272 273 273 272 272 271 271 271 271 270 268 268 268 267 266 265 264 264 264 264 264
270 269 267 267 267 267 267 267 266 266 266 266 267 268 269 269 269 270 271 271 271 272 273 273 274 273 273 272 271 272 272 271 270 269 268 266 266 265 265 265 264 264 265
271 269 267 267 267 267 268 268 268 268 267 267 268 269 269 270 270 270 270 270 271 271 272 273 273 273 273 273 272 272 272 272 271 270 267 266 267 266 265 265 265 265 265
269 269 268 267 268 268 269 269 269 269 270 270 270 270 270 271 271 271 271 271 272 272 273 274 274 274 274 274 274 273 273 273 272 270 268 267 266 266 265 265 265 265 265
270 270 270 270 270 269 269 270 270 271 271 271 271 271 271 271 272 272 272 272 273 273 274 274 274 275 275 276 275 274 274 274 272 271 270 268 267 266 265 265 266 266 266
271 271 271 272 271 271 271 271 271 271 271 272 272 272 272 271 272 273 273 273 274 274 275 275 275 275 276 276 276 276 275 274 273 272 270 269 268 266 266 267 267 267 266
271 271 271 271 271 272 271 271 272 271 271 272 272 272 272 273 273 273 273 274 274 274 275 274 275 275 275 276 276 276 277 275 273 273 271 270 268 268 268 268 268 267 267
272 272 271 270 271 272 272 272 272 272 272 272 272 272 272 273 274 274 274 274 275 275 275 274 274 274 274 276 278 278 277 275 274 272 271 270 270 269 269 269 269 268 267
273 273 273 273 273 273 273 273 272 272 272 272 272 272 272 273 274 274 274 274 275 275 275 275 275 275 276 277 278 278 277 276 274 273 272 271 271 270 270 269 269 268 267
274 274 274 273 274 274 273 273 273 272 272 272 272 273 273 274 275 275 275 274 275 276 276 276 276 276 276 277 277 278 278 277 276 274 273 272 272 270 269 269 268 268 268
275 275 275 274 274 274 273 273 273 273 273 273 273 274 274 274 275 276 276 275 276 276 277 277 277 276 277 277 277 278 278 278 277 276 274 273 272 271 270 269 269 269 268
277 277 277 276 275 274 273 274 274 274 273 274 274 275 275 275 275 276 276 276 276 277 278 278 277 277 278 278 278 278 278 278 277 276 275 274 272 271 270 269 269 268 268
278 278 278 277 276 275 274 274 274 274 274 274 275 275 276 275 276 276 277 277 277 277 278 278 278 278 279 280 280 279 278 277 277 276 275 274 273 272 272 271 270 269 268
278 278 278 278 277 276 276 276 275 275 274 275 275 276 277 277 277 277 278 278 277 277 278 278 278 278 278 279 280 280 279 278 277 277 276 275 274 274 273 272 271 271 270
279 280 279 279 278 278 277 276 276 276 276 275 275 276 277 277 277 277 278 278 277 276 277 277 278 278 278 278 279 279 279 278 278 278 276 275 274 273 273 272 272 271 271
280 280 279 279 279 279 278 278 277 276 276 276 276 277 277 278 279 278 278 278 278 278 277 277 277 278 277 277 277 278 279 279 278 278 277 275 274 273 273 273 273 271 270
281 281 280 280 279 279 279 278 278 277 277 276 277 278 278 279 279 279 279 279 279 278 277 277 277 277 276 276 277 278 279 280 279 278 277 276 275 274 274 274 273 273 271
280 280 280 280 280 279 279 278 277 277 277 276 277 278 278 279 279 278 278 279 278 278 279 278 277 276 276 276 276 277 278 279 279 279 279 278 278 276 275 275 274 273 272
280 280 280 280 280 280 279 277 277 277 277 276 277 278 279 278 278 278 278 278 278 279 279 278 278 278 277 276 275 275 276 278 279 280 280 280 279 277 276 275 274 273 272
281 281 281 281 281 280 278 277 276 277 277 276 277 278 279 278 278 278 278 278 279 279 278 278 279 278 277 276 275 276 276 278 279 280 280 280 279 278 277 276 275 274 273